Time,TemperatureF,DewpointF,PressureIn,WindDirection,WindDirectionDegrees,WindSpeedMPH,WindSpeedGustMPH,Humidity,HourlyPrecipIn,Conditions,Clouds,dailyrainin,SoftwareType,DateUTC
2013-07-06 00:06:00,75.7,61.0,29.82,SSW,209,0.0,0.0,61,0.00,,,0.00,weatherlink.com 1.10,2013-07-06 05:06:00,
2013-07-06 00:21:00,75.4,61.0,29.82,South,190,0.0,0.0,61,0.00,,,0.00,weatherlink.com 1.10,2013-07-06 05:21:00,
2013-07-06 00:36:00,75.0,61.0,29.82,South,173,0.0,0.0,61,0.00,,,0.00,weatherlink.com 1.10,2013-07-06 05:36:00,
2013-07-06 00:51:00,74.6,61.0,29.82,SSW,199,0.0,0.0,62,0.00,,,0.00,weatherlink.com 1.10,2013-07-06 05:51:00,
2013-07-06 01:06:00,74.2,61.0,29.82,South,182,0.0,0.0,63,0.00,,,0.00,weatherlink.com 1.10,2013-07-06 06:06:00,
2013-07-06 01:21:00,73.8,61.0,29.82,South,169,0.0,0.0,64,0.00,,,0.00,weatherlink.com 1.10,2013-07-06 06:21:00,
2013-07-06 01:36:00,73.7,61.0,29.82,SSW,205,0.0,0.0,64,0.00,,,0.00,weatherlink.com 1.10,2013-07-06 06:36:00,
2013-07-06 01:51:00,73.6,61.0,29.82,SSE,157,0.0,0.0,64,0.00,,,0.00,weatherlink.com 1.10,2013-07-06 06:51:00,
2013-07-06 02:06:00,73.5,61.0,29.82,SSW,195,0.0,0.0,64,0.00,,,0.00,weatherlink.com 1.10,2013-07-06 07:06:00,
2013-07-06 02:21:00,73.0,60.0,29.82,SSW,196,0.0,0.0,65,0.00,,,0.00,weatherlink.com 1.10,2013-07-06 07:21:00,
2013-07-06 02:36:00,72.5,60.0,29.82,SSW,192,0.0,0.0,66,0.00,,,0.00,weatherlink.com 1.10,2013-07-06 07:36:00,
2013-07-06 02:51:00,72.4,60.0,29.82,SW,231,0.0,0.0,66,0.00,,,0.00,weatherlink.com 1.10,2013-07-06 07:51:00,
2013-07-06 03:07:00,72.3,61.0,29.82,South,185,0.0,0.0,67,0.00,,,0.00,weatherlink.com 1.10,2013-07-06 08:07:00,
2013-07-06 03:21:00,72.0,60.0,29.82,South,177,0.0,0.0,67,0.00,,,0.00,weatherlink.com 1.10,2013-07-06 08:21:00,
2013-07-06 03:36:00,71.5,61.0,29.82,South,171,0.0,0.0,69,0.00,,,0.00,weatherlink.com 1.10,2013-07-06 08:36:00,
2013-07-06 03:52:00,71.0,61.0,29.82,SSW,205,0.0,0.0,70,0.00,,,0.00,weatherlink.com 1.10,2013-07-06 08:52:00,
2013-07-06 04:06:00,70.8,61.0,29.82,SSW,209,0.0,0.0,70,0.00,,,0.00,weatherlink.com 1.10,2013-07-06 09:06:00,
2013-07-06 04:21:00,70.3,61.0,29.82,SSW,210,0.0,0.0,72,0.00,,,0.00,weatherlink.com 1.10,2013-07-06 09:21:00,
2013-07-06 04:36:00,69.8,61.0,29.82,SW,223,0.0,0.0,73,0.00,,,0.00,weatherlink.com 1.10,2013-07-06 09:36:00,
2013-07-06 04:51:00,69.2,61.0,29.82,SSW,195,0.0,0.0,75,0.00,,,0.00,weatherlink.com 1.10,2013-07-06 09:51:00,
2013-07-06 05:06:00,68.8,61.0,29.82,SSW,196,0.0,0.0,76,0.00,,,0.00,weatherlink.com 1.10,2013-07-06 10:06:00,
2013-07-06 05:21:00,69.2,61.0,29.82,SSE,163,0.0,0.0,75,0.00,,,0.00,weatherlink.com 1.10,2013-07-06 10:21:00,
2013-07-06 05:36:00,70.2,61.0,29.82,South,169,0.0,0.0,73,0.00,,,0.00,weatherlink.com 1.10,2013-07-06 10:36:00,
2013-07-06 05:51:00,70.4,61.0,29.83,SSW,209,0.0,0.0,72,0.00,,,0.00,weatherlink.com 1.10,2013-07-06 10:51:00,
2013-07-06 06:07:00,71.0,61.0,29.83,SSE,162,0.0,0.0,71,0.00,,,0.00,weatherlink.com 1.10,2013-07-06 11:07:00,
2013-07-06 06:22:00,71.7,61.0,29.83,SSE,167,0.0,0.0,70,0.00,,,0.00,weatherlink.com 1.10,2013-07-06 11:22:00,
2013-07-06 06:37:00,72.0,61.0,29.83,SSW,197,0.0,0.0,69,0.00,,,0.00,weatherlink.com 1.10,2013-07-06 11:37:00,
2013-07-06 06:52:00,71.9,62.0,29.83,SSW,205,0.0,0.0,70,0.00,,,0.00,weatherlink.com 1.10,2013-07-06 11:52:00,
2013-07-06 07:07:00,72.5,62.0,29.83,SW,215,0.0,0.0,69,0.00,,,0.00,weatherlink.com 1.10,2013-07-06 12:07:00,
2013-07-06 07:22:00,72.5,62.0,29.83,South,187,0.0,0.0,69,0.00,,,0.00,weatherlink.com 1.10,2013-07-06 12:22:00,
2013-07-06 07:37:00,72.5,62.0,29.83,SSE,159,0.0,0.0,70,0.00,,,0.00,weatherlink.com 1.10,2013-07-06 12:37:00,
2013-07-06 07:52:00,72.5,62.0,29.83,SSW,207,0.0,0.0,70,0.00,,,0.00,weatherlink.com 1.10,2013-07-06 12:52:00,
2013-07-06 08:07:00,72.8,62.0,29.83,SSW,207,0.0,0.0,70,0.00,,,0.00,weatherlink.com 1.10,2013-07-06 13:07:00,
2013-07-06 08:22:00,73.7,63.0,29.82,SSW,207,0.0,0.0,69,0.00,,,0.00,weatherlink.com 1.10,2013-07-06 13:22:00,
2013-07-06 08:37:00,75.1,64.0,29.81,SSW,200,0.0,0.0,68,0.00,,,0.00,weatherlink.com 1.10,2013-07-06 13:37:00,
2013-07-06 08:52:00,76.2,64.0,29.82,SE,138,0.0,0.0,66,0.00,,,0.00,weatherlink.com 1.10,2013-07-06 13:52:00,
2013-07-06 09:07:00,77.6,64.0,29.82,SSW,201,0.0,0.0,63,0.00,,,0.00,weatherlink.com 1.10,2013-07-06 14:07:00,
2013-07-06 09:22:00,78.5,63.0,29.82,SSW,202,0.0,0.0,60,0.00,,,0.00,weatherlink.com 1.10,2013-07-06 14:22:00,
2013-07-06 09:37:00,78.9,63.0,29.81,SW,215,0.0,0.0,59,0.00,,,0.00,weatherlink.com 1.10,2013-07-06 14:37:00,
2013-07-06 09:52:00,80.2,64.0,29.81,South,185,0.0,0.0,58,0.00,,,0.00,weatherlink.com 1.10,2013-07-06 14:52:00,
2013-07-06 10:07:00,80.7,64.0,29.81,South,177,0.0,0.0,57,0.00,,,0.00,weatherlink.com 1.10,2013-07-06 15:07:00,
2013-07-06 10:22:00,81.5,64.0,29.80,SSW,192,0.0,0.0,56,0.00,,,0.00,weatherlink.com 1.10,2013-07-06 15:22:00,
2013-07-06 10:37:00,82.2,64.0,29.80,SSW,213,0.0,0.0,55,0.00,,,0.00,weatherlink.com 1.10,2013-07-06 15:37:00,
2013-07-06 10:53:00,83.4,64.0,29.80,SSW,195,0.0,0.0,53,0.00,,,0.00,weatherlink.com 1.10,2013-07-06 15:53:00,
2013-07-06 11:38:00,85.8,64.0,29.80,SSW,211,0.0,0.0,49,0.00,,,0.00,weatherlink.com 1.10,2013-07-06 16:38:00,
2013-07-06 11:53:00,86.2,65.0,29.80,SSW,194,0.0,0.0,49,0.00,,,0.00,weatherlink.com 1.10,2013-07-06 16:53:00,
2013-07-06 12:53:00,88.5,65.0,29.77,South,184,0.0,0.0,46,0.00,,,0.00,weatherlink.com 1.10,2013-07-06 17:53:00,
2013-07-06 13:08:00,88.6,65.0,29.77,South,186,0.0,0.0,45,0.00,,,0.00,weatherlink.com 1.10,2013-07-06 18:08:00,
2013-07-06 13:53:00,90.1,66.0,29.76,SW,214,0.0,0.0,45,0.00,,,0.00,weatherlink.com 1.10,2013-07-06 18:53:00,
2013-07-06 14:08:00,90.5,66.0,29.76,SSW,196,0.0,0.0,45,0.00,,,0.00,weatherlink.com 1.10,2013-07-06 19:08:00,
2013-07-06 14:23:00,91.1,66.0,29.76,SSW,192,0.0,0.0,43,0.00,,,0.00,weatherlink.com 1.10,2013-07-06 19:23:00,
2013-07-06 14:38:00,91.0,66.0,29.76,SSE,165,0.0,0.0,43,0.00,,,0.00,weatherlink.com 1.10,2013-07-06 19:38:00,
2013-07-06 15:23:00,91.7,65.0,29.75,SSW,198,0.0,0.0,41,0.00,,,0.00,weatherlink.com 1.10,2013-07-06 20:23:00,
2013-07-06 16:08:00,90.9,64.0,29.75,South,189,0.0,0.0,41,0.00,,,0.00,weatherlink.com 1.10,2013-07-06 21:08:00,
2013-07-06 16:23:00,90.6,64.0,29.75,SW,216,0.0,0.0,42,0.00,,,0.00,weatherlink.com 1.10,2013-07-06 21:23:00,
2013-07-06 16:38:00,90.4,64.0,29.74,SSW,192,0.0,0.0,42,0.00,,,0.00,weatherlink.com 1.10,2013-07-06 21:38:00,
2013-07-06 17:08:00,89.9,65.0,29.75,South,189,0.0,0.0,44,0.00,,,0.00,weatherlink.com 1.10,2013-07-06 22:08:00,
2013-07-06 17:23:00,89.7,66.0,29.74,South,190,0.0,0.0,45,0.00,,,0.00,weatherlink.com 1.10,2013-07-06 22:23:00,
2013-07-06 17:38:00,89.5,65.0,29.74,SE,144,0.0,0.0,44,0.00,,,0.00,weatherlink.com 1.10,2013-07-06 22:38:00,
2013-07-06 17:53:00,90.1,65.0,29.73,SSW,193,0.0,0.0,44,0.00,,,0.00,weatherlink.com 1.10,2013-07-06 22:53:00,
2013-07-06 18:08:00,90.0,66.0,29.73,South,190,0.0,0.0,45,0.00,,,0.00,weatherlink.com 1.10,2013-07-06 23:08:00,
2013-07-06 18:23:00,89.9,65.0,29.73,SSW,200,0.0,0.0,44,0.00,,,0.00,weatherlink.com 1.10,2013-07-06 23:23:00,
2013-07-06 18:53:00,88.7,65.0,29.73,SSW,195,0.0,0.0,46,0.00,,,0.00,weatherlink.com 1.10,2013-07-06 23:53:00,
2013-07-06 19:53:00,86.3,67.0,29.73,SSE,161,0.0,0.0,52,0.00,,,0.00,weatherlink.com 1.10,2013-07-07 00:53:00,
2013-07-06 20:23:00,85.4,66.0,29.74,SSE,147,0.0,0.0,53,0.00,,,0.00,weatherlink.com 1.10,2013-07-07 01:23:00,
2013-07-06 20:38:00,85.0,66.0,29.75,South,191,0.0,0.0,53,0.00,,,0.00,weatherlink.com 1.10,2013-07-07 01:38:00,
2013-07-06 21:08:00,83.9,66.0,29.75,SE,133,0.0,0.0,55,0.00,,,0.00,weatherlink.com 1.10,2013-07-07 02:08:00,
2013-07-06 21:23:00,83.2,66.0,29.76,South,190,0.0,0.0,56,0.00,,,0.00,weatherlink.com 1.10,2013-07-07 02:23:00,
2013-07-06 21:38:00,82.5,66.0,29.77,SW,223,0.0,0.0,58,0.00,,,0.00,weatherlink.com 1.10,2013-07-07 02:38:00,
2013-07-06 21:53:00,81.8,66.0,29.77,SW,219,0.0,0.0,60,0.00,,,0.00,weatherlink.com 1.10,2013-07-07 02:53:00,
2013-07-06 22:38:00,81.1,66.0,29.78,SSW,204,0.0,0.0,61,0.00,,,0.00,weatherlink.com 1.10,2013-07-07 03:38:00,
2013-07-06 23:08:00,80.6,66.0,29.78,SSW,202,0.0,0.0,61,0.00,,,0.00,weatherlink.com 1.10,2013-07-07 04:08:00,
2013-07-06 23:23:00,80.2,66.0,29.79,SE,132,0.0,0.0,62,0.00,,,0.00,weatherlink.com 1.10,2013-07-07 04:23:00,
2013-07-06 23:38:00,79.7,66.0,29.79,SW,214,0.0,0.0,63,0.00,,,0.00,weatherlink.com 1.10,2013-07-07 04:38:00,
2013-07-06 23:53:00,79.1,66.0,29.79,SSE,165,0.0,0.0,64,0.00,,,0.00,weatherlink.com 1.10,2013-07-07 04:53:00,